GSAT-15 (GAGAN/PRN 139)

Last updated on Sat Sep 05 2026 00:03:32 GMT+0000 (Coordinated Universal Time)

1 41028U 15065A 26247.54313162 -.00000265 00000+0 00000+0 0 9990 2 41028 0.0626 269.8549 0001765 227.4175 135.4324 1.00271533 39591
UTC large
Height (km)
Speed (km/s)
/
Latitude / Longitude
Inclination (degrees)
Orbital Period (minutes)
Azimuth
Elevation
Range (km)
Doppler Factor

Next 0 passes for location: London (51.5072 / 0.1276)

No passes found over London.
GSAT-15 (GAGAN/PRN 139)